Location: Bishausen
(51.6334°N, 9.9631°E)
Time: 14:50:03
(UTC+00:00)

UNK - Pass Details

Date: 23 May 2024
Orbit: 660 x 680 km, 98.3° (Epoch: 12 June)

Event Time Altitude Azimuth Distance (km) Brightness Sun altitude
Rises 01:42:54 0° 151° (SSE) 3,030 6.8 -11.0°
Reaches altitude 10° 01:45:09 10° 148° (SSE) 2,119 6.1 -10.8°
Maximum altitude 01:49:41 58° 70° (ENE) 797 4.4 -10.4°
Drops below altitude 10° 01:54:16 10° 352° (N) 2,129 7.0 -9.9°
Sets 01:56:32 0° 348° (NNW) 3,047 7.8 -9.7°
